{"data":{"norad_id":63078,"epoch":"2026-05-25T03:42:56.628576Z","epoch_age_seconds":65671,"freshness":"FRESH","line1":"1 63078U 25037B   26145.15482209  .00001679  00000+0  14844-3 0  9996","line2":"2 63078  70.0006 161.7437 0003996 266.2990  93.7712 14.98335488 70031","mean_motion":14.98335488,"eccentricity":0.0003996,"inclination_deg":70.0006,"raan_deg":161.7437,"arg_perigee_deg":266.299,"mean_anomaly_deg":93.7712,"bstar":0.00014844,"rev_number":7003,"period_min":96.106647111598,"perigee_km":569.26162951137,"apogee_km":574.81621010648,"semimajor_km":6950.1759198089,"source":"CELESTRAK","updated_at":"2026-05-25T13:38:19.876781Z"}}